Вернуться в каталог

STARLINK-4111

АктивенСвязьVLEO
NORAD 53159·PAYLOAD·🇺🇸 United States

Запущен Jul 17, 2022 с Cape Canaveral Space Force Station

Loading…

Ближайшие Пролёты (ближайшие 24 часа)

TLE

СвежийSource: CelesTrak SupGP

Эпоха: Sep 15, 2026, 01:22 UTC

1 53159C 22083AD  26258.05743056 -.00029272  00000+0 -83787-3 0  2588
2 53159  53.1612  29.2210 0001136  83.2033  87.4972 15.35398957    12

Отслеживайте STARLINK-4111 в реальном времени с AllMySat

Download on the App Store